Home > Weather > Amberg > Past weeks

Flag for Germany Weather for the Past 2 Weeks in Amberg, Bavaria, Germany

Now
43 °F

Clear.


Feels Like: 41 °F
Forecast: 31 / 62 °F
Wind: 3 mph from Northwest

Location: Hohenfels

Current Time: Apr 29, 2016 at 10:36:08 PM

Latest Report: Apr 29, 2016 at 9:58 PM


Visibility: N/A

Pressure: 30.09 "Hg

Humidity: 76%

Dew Point: 36 °F

Location of AmbergLocation

Historic Weather in Amberg — Graph

°F

Amberg Temperature Yesterday

Maximum temperature yesterday: 46 °F (at 2:59 PM)
Minimum temperature yesterday: 28 °F (at 2:58 AM)
Average temperature yesterday: 37 °F

High & Low Weather Summary for the Past Weeks

 TemperatureHumidityPressure
High66 °F (Apr 21, 5:58 PM)100% (Apr 14, 11:58 PM)30.42 "Hg (Apr 14, 11:58 PM)
Low28 °F (Apr 28, 2:58 AM)27% (Apr 21, 3:58 PM)29.57 "Hg (Apr 26, 6:00 AM)
Average43 °F79%29.96 "Hg
* Reported Apr 14 8:58 PM — Apr 29 8:58 PM, Amberg, Weather by CustomWeather, © 2016

Note: Actual official high and low records may vary slightly from our data, if they occured in-between our weather recording intervals... More about our weather records

Advertising

Amberg Weather History for the Previous 24 Hours

Scroll right to see more
 ConditionsComfort  
Time TempWeatherWind HumidityBarometerVisibility
8:58 PM
Fri, Apr 29
45 °FSunny.2 mph71%30.10 "HgN/A
7:58 PM54 °FSunny.3 mph44%30.07 "HgN/A
6:58 PM55 °FSunny.3 mph38%30.06 "HgN/A
5:58 PM57 °FPassing clouds.5 mph36%30.09 "HgN/A
4:58 PM57 °FPassing clouds.9 mph39%30.09 "HgN/A
3:58 PM54 °FOvercast.3 mph44%30.10 "HgN/A
2:58 PM54 °FScattered clouds.6 mph47%30.12 "HgN/A
1:58 PM52 °FOvercast.6 mph47%30.12 "HgN/A
12:58 PM52 °FPartly sunny.3 mph47%30.13 "HgN/A
11:58 AM50 °FPassing clouds.8 mph50%30.15 "HgN/A
10:58 AM48 °FSunny.5 mph62%30.15 "HgN/A
10:04 AM41 °FScattered clouds.5 mph100%30.11 "HgN/A
9:58 AM41 °FPartly sunny.3 mph100%30.17 "HgN/A
8:58 AM36 °FFog.2 mph100%30.17 "Hg3 mi
8:01 AM34 °FFog.1 mph93%30.10 "Hg0 mi
6:58 AM32 °FChilly.2 mph100%30.14 "HgN/A
5:58 AM32 °FChilly.3 mph100%30.13 "HgN/A
4:58 AM30 °FIce fog.5 mph100%30.13 "Hg1 mi
2:58 AM28 °FIce fog.No wind100%30.13 "Hg5 mi
1:58 AM28 °FClear.No wind100%30.14 "HgN/A
12:58 AM30 °FIce fog.2 mph100%30.13 "Hg1 mi
11:58 PM
Thu, Apr 28
32 °FClear.1 mph100%30.12 "HgN/A
10:58 PM32 °FClear.2 mph100%30.11 "HgN/A
Weather by CustomWeather, © 2016

See weather overviewHow to use our weather pages